{"data":{"norad_id":62184,"epoch":"2026-09-21T17:58:29.118432Z","epoch_age_seconds":70306,"freshness":"FRESH","line1":"1 62184U 24225X   26264.74894813  .00010873  00000+0  38209-3 0  9993","line2":"2 62184  70.0014  17.6867 0003498 273.6947  86.3828 15.29582022 99551","mean_motion":15.29582022,"eccentricity":0.0003498,"inclination_deg":70.0014,"raan_deg":17.6867,"arg_perigee_deg":273.6947,"mean_anomaly_deg":86.3828,"bstar":0.00038209,"rev_number":9955,"period_min":94.143365918824,"perigee_km":474.66291333074,"apogee_km":479.45880975468,"semimajor_km":6855.1978615427,"source":"CELESTRAK","updated_at":"2026-09-22T09:00:49.538507Z"}}